Ft Lauderdale, FL

1:18 PM EDT on June 28, 2017 (GMT -0400)
Fort Lauderdale-Hollywood International

Weather History for KFLL - March, 2014

Change the Weather History Date:

Saturday, March 22, 2014

  Actual Average Record
Temperature  
Mean Temperature 76 °F 73 °F  
Max Temperature 81 °F 80 °F 93 °F (2003)
Min Temperature 71 °F 67 °F 41 °F (1924)
Degree Days  
Heating Degree Days 0 0  
Month to date heating degree days 0 7  
Since 1 July heating degree days 80 109  
Cooling Degree Days 11 9  
Month to date cooling degree days 193 173  
Year to date cooling degree days 581 529  
Growing Degree Days 26 (Base 50)    
Moisture  
Dew Point 70 °F    
Average Humidity 70    
Maximum Humidity 93    
Minimum Humidity 46    
Precipitation  
Precipitation 0.55 in 0.10 in 0.90 in (1925)
Month to date precipitation 2.12 2.31  
Year to date precipitation 7.63 8.90  
Snow  
Snow 0.00 in - - ()
Month to date snowfall 0.0  
Since 1 July snowfall 0.0  
Snow Depth 0.00 in    
Sea Level Pressure  
Sea Level Pressure 30.04 in    
Wind  
Wind Speed 11 mph (SSE)    
Max Wind Speed 21 mph    
Max Gust Speed 27 mph    
Visibility 9 miles    
Events Rain    
T = Trace of Precipitation, MM = Missing Value Source: NWS Daily Summary

Daily Weather History Graph

Daily Weather History Graph

Search for Another Location

Airport or City:

Trip Planner

Search our weather history database for the weather conditions in past years. The results will help you decide how hot, cold, wet, or windy it might be!

Date:

Astronomy

Mar. 22, 2014 Rise Set
Actual Time 7:22 AM EDT 7:32 PM EDT
Civil Twilight 6:59 AM EDT 7:55 PM EDT
Nautical Twilight 6:32 AM EDT 8:22 PM EDT
Astronomical Twilight 6:05 AM EDT 8:49 PM EDT
Moon 12:23 AM EDT (3/22) 11:31 AM EDT (3/22)
Length of Visible Light 12h 56m
Length of Day
12h 10m
Waning Gibbous, 65% of the Moon is Illuminated
Mar 22
Waning Gibbous
Mar 23
Last Quarter
Mar 30
New
Apr 7
First Quarter
Apr 15
Full

Hourly Weather History & Observations

Time (EDT) Temp. Heat Index Dew Point Humidity Pressure Visibility Wind Dir Wind Speed Gust Speed Precip Events Conditions
12:53 AM 77.0 °F - 69.1 °F 76% 30.05 in 10.0 mi SE 13.8 mph - N/A   Mostly Cloudy
1:53 AM 77.0 °F - 68.0 °F 74% 30.04 in 10.0 mi SE 17.3 mph 26.5 mph N/A   Scattered Clouds
2:53 AM 77.0 °F - 69.1 °F 76% 30.03 in 10.0 mi SE 15.0 mph - N/A   Mostly Cloudy
3:53 AM 75.9 °F - 68.0 °F 76% 30.01 in 10.0 mi SSE 15.0 mph - N/A   Mostly Cloudy
4:53 AM 77.0 °F - 68.0 °F 74% 30.02 in 10.0 mi SE 16.1 mph - N/A   Overcast
5:53 AM 75.9 °F - 68.0 °F 76% 30.03 in 10.0 mi SE 10.4 mph - N/A   Mostly Cloudy
6:53 AM 75.9 °F - 69.1 °F 79% 30.04 in 10.0 mi SSE 10.4 mph - 0.00 in   Mostly Cloudy
7:27 AM 73.9 °F - 70.0 °F 87% 30.05 in 4.0 mi South 9.2 mph 18.4 mph 0.06 in Rain Rain
7:44 AM 73.9 °F - 70.0 °F 87% 30.06 in 10.0 mi SSW 6.9 mph - 0.06 in   Overcast
7:53 AM 73.9 °F - 71.1 °F 91% 30.06 in 10.0 mi SSW 5.8 mph - 0.06 in   Mostly Cloudy
8:53 AM 73.9 °F - 71.1 °F 91% 30.07 in 10.0 mi SSE 11.5 mph - N/A   Scattered Clouds
9:53 AM 78.1 °F - 72.0 °F 81% 30.08 in 10.0 mi SE 10.4 mph - N/A   Scattered Clouds
10:27 AM 79.0 °F - 70.0 °F 74% 30.08 in 10.0 mi South 12.7 mph 20.7 mph N/A   Mostly Cloudy
10:53 AM 78.1 °F - 71.1 °F 79% 30.08 in 10.0 mi SSE 15.0 mph - 0.00 in Rain Light Rain
11:11 AM 75.9 °F - 72.0 °F 87% 30.09 in 1.5 mi SSW 9.2 mph - 0.16 in Rain Heavy Rain
11:21 AM 73.0 °F - 71.1 °F 93% 30.10 in 0.8 mi South 10.4 mph 19.6 mph 0.43 in Rain Heavy Rain
11:29 AM 72.0 °F - 70.0 °F 93% 30.08 in 3.0 mi SE 18.4 mph 27.6 mph 0.49 in Rain Rain
11:53 AM 77.0 °F - 73.0 °F 88% 30.07 in 10.0 mi ESE 6.9 mph - 0.49 in   Mostly Cloudy
12:53 PM 77.0 °F - 72.0 °F 84% 30.06 in 10.0 mi SE 8.1 mph - N/A   Mostly Cloudy
1:28 PM 78.1 °F - 73.0 °F 84% 30.05 in 10.0 mi SSE 15.0 mph - N/A   Mostly Cloudy
1:53 PM 78.1 °F - 73.0 °F 84% 30.04 in 10.0 mi SSE 17.3 mph - N/A   Mostly Cloudy
2:41 PM 79.0 °F - 72.0 °F 79% 30.02 in 10.0 mi SE 13.8 mph - N/A   Mostly Cloudy
2:53 PM 80.1 °F 84.2 °F 73.0 °F 79% 30.02 in 10.0 mi SE 15.0 mph - N/A   Mostly Cloudy
2:57 PM 80.1 °F 84.2 °F 73.0 °F 79% 30.02 in 10.0 mi SSE 12.7 mph - N/A   Mostly Cloudy
3:53 PM 79.0 °F - 72.0 °F 79% 29.99 in 10.0 mi SE 13.8 mph - N/A   Mostly Cloudy
4:53 PM 80.1 °F 84.2 °F 73.0 °F 79% 29.98 in 10.0 mi SE 19.6 mph - N/A   Mostly Cloudy
5:53 PM 80.1 °F 84.5 °F 73.9 °F 81% 29.98 in 10.0 mi SE 15.0 mph - N/A   Scattered Clouds
6:53 PM 80.1 °F 84.5 °F 73.9 °F 81% 30.00 in 10.0 mi SE 10.4 mph - N/A   Mostly Cloudy
7:53 PM 79.0 °F - 72.0 °F 79% 30.01 in 10.0 mi South 8.1 mph - N/A   Mostly Cloudy
8:53 PM 79.0 °F - 71.1 °F 77% 30.03 in 10.0 mi Variable 4.6 mph - N/A   Scattered Clouds
9:53 PM 78.1 °F - 57.0 °F 48% 30.05 in 10.0 mi SW 6.9 mph - N/A   Scattered Clouds
10:53 PM 75.9 °F - 57.0 °F 52% 30.06 in 10.0 mi SSW 6.9 mph - N/A   Partly Cloudy
11:53 PM 75.0 °F - 54.0 °F 48% 30.06 in 10.0 mi WSW 8.1 mph - N/A   Partly Cloudy